Theta_e
353 353 353 353 353 354 354 353 352 352 351 351 350 350 351 352 352 352 353 354 355 355 355 354 354 355 356 358 358 357 358 358 359 358 355 353 352 351 350 348 347 346
353 353 353 354 353 353 353 353 352 352 351 351 351 350 350 352 352 353 353 353 354 355 355 355 354 355 356 359 360 358 358 359 358 358 357 355 354 353 351 350 348 347
353 352 353 353 354 354 353 353 352 352 352 352 352 351 351 351 352 352 353 353 354 355 355 355 355 354 355 358 360 359 358 359 358 357 357 357 355 354 352 351 350 347
353 353 353 353 354 354 354 353 352 352 352 352 352 352 351 352 352 352 353 353 353 354 355 355 355 354 355 357 359 360 358 358 359 358 358 357 356 355 354 353 351 348
353 353 353 353 353 354 354 354 353 352 352 351 351 352 353 354 354 353 354 354 353 354 354 355 356 355 356 356 358 360 360 358 359 359 358 357 356 356 354 354 353 350
354 353 354 354 354 353 355 354 354 353 353 352 352 352 354 355 355 355 354 355 354 355 355 355 356 356 356 357 358 359 360 359 359 359 359 357 356 356 355 355 355 352
354 355 354 355 354 354 355 354 354 354 353 353 352 352 354 356 356 356 355 355 355 355 356 356 356 356 357 357 358 359 359 359 359 359 359 358 357 356 355 355 355 354
354 355 354 355 355 356 356 355 355 355 355 355 355 354 354 354 356 356 356 356 356 357 357 357 357 357 356 358 358 359 359 358 358 359 359 359 357 356 356 356 356 355
355 356 356 356 356 356 356 356 355 355 356 357 357 356 355 354 354 355 355 356 357 357 357 357 357 356 356 357 357 358 357 358 357 358 358 359 358 357 356 356 356 356
356 356 356 356 357 356 356 356 356 356 355 356 357 357 357 355 354 355 355 356 357 357 357 357 357 357 356 357 357 356 357 356 356 357 357 359 358 358 358 356 356 356
356 357 357 356 356 356 357 356 356 356 355 355 355 356 357 358 357 356 357 357 357 357 357 358 358 358 357 357 357 356 357 356 356 356 357 357 358 358 358 357 356 356
356 356 357 357 357 356 356 357 356 356 355 355 354 354 355 356 357 358 358 358 358 357 358 358 358 358 357 357 357 357 357 357 357 356 357 357 357 357 358 357 356 356
357 357 357 356 357 356 357 357 356 356 356 355 355 354 354 354 355 357 357 357 358 357 358 359 358 358 358 357 357 357 358 358 358 357 357 357 357 357 357 357 356 356
357 358 357 357 357 357 357 356 356 356 356 355 355 354 354 354 353 355 356 357 357 357 357 358 359 359 359 358 358 358 358 358 358 358 358 357 357 357 357 357 356 356
358 358 357 357 358 357 357 356 356 356 356 355 355 354 354 354 353 353 355 356 357 357 356 357 358 359 358 358 358 358 359 359 358 358 359 359 358 358 357 357 356 356
359 359 359 358 358 358 357 357 356 356 356 356 355 355 354 354 354 353 354 355 356 357 358 357 358 358 358 358 358 358 358 359 359 359 359 359 359 358 358 357 357 357
360 359 359 359 359 358 358 358 357 357 356 356 356 355 355 355 354 354 354 355 355 356 357 357 358 357 357 357 358 358 358 358 359 359 359 359 359 359 358 358 357 357
360 360 360 359 359 359 359 358 358 357 356 356 355 355 355 355 355 354 354 354 356 356 357 357 357 357 357 357 357 358 358 358 358 359 359 359 359 359 359 358 358 357
362 361 361 360 360 359 359 359 358 357 356 355 355 355 355 355 355 356 355 355 355 356 357 357 357 357 357 357 357 357 358 359 358 358 359 359 359 359 359 359 358 358
363 363 361 361 361 360 359 359 359 358 357 356 355 355 355 355 355 356 356 356 355 355 357 357 357 358 357 357 358 357 358 359 359 359 358 358 359 359 359 359 358 359
365 364 362 362 361 360 360 359 359 358 357 357 356 355 355 355 355 356 356 356 356 356 356 356 357 357 357 358 358 358 358 358 359 359 359 358 359 358 358 359 359 359
365 365 363 363 362 361 360 359 359 359 358 358 357 356 356 356 356 356 356 356 357 357 356 357 357 357 358 358 359 359 359 359 359 359 359 358 358 359 358 358 359 359
366 366 364 363 362 361 360 360 359 359 359 358 358 357 357 356 356 357 357 357 358 358 357 358 357 357 358 358 358 359 359 360 359 359 358 359 358 358 359 358 359 359
366 366 366 364 363 362 361 360 360 359 359 358 358 357 357 356 356 356 357 357 359 359 359 359 358 358 358 359 359 360 359 360 360 359 359 358 359 358 359 359 359 359
365 366 366 365 365 363 363 362 361 359 359 359 358 358 358 357 357 356 356 358 358 358 359 360 360 359 359 359 359 360 360 360 361 359 358 358 359 359 359 359 359 359
364 366 365 365 366 364 364 363 362 361 360 360 359 359 358 358 357 357 357 357 357 358 359 359 360 360 360 360 359 359 360 360 361 361 359 359 359 359 359 360 360 359
Wind_Speed
40 39 37 36 35 35 36 37 36 36 36 36 35 35 34 33 32 31 30 28 28 28 27 26 25 25 24 23 22 22 21 22 22 22 21 22 22 21 20 20 19 17
41 40 38 36 34 33 34 36 36 36 37 37 36 35 34 32 31 31 30 29 29 29 29 28 27 26 26 26 25 24 23 24 24 23 23 23 23 22 21 21 21 19
41 40 39 38 36 34 34 35 35 36 36 36 36 35 34 33 31 31 31 31 30 30 30 29 28 28 27 28 28 27 26 26 26 25 25 24 24 23 22 21 21 21
40 40 39 39 38 36 35 34 34 35 35 35 36 36 35 33 32 32 32 32 31 31 31 31 30 29 29 28 29 30 29 29 27 26 27 26 25 25 24 23 23 23
40 39 39 39 38 37 35 34 35 36 36 36 36 36 35 34 33 33 33 33 33 32 32 31 31 31 30 29 29 30 30 30 29 27 28 28 27 27 26 25 24 25
39 39 38 38 38 37 36 37 38 38 38 38 37 36 35 34 34 34 34 33 33 33 33 32 32 32 32 31 31 31 31 32 31 29 29 30 30 29 27 27 27 27
38 39 39 38 37 37 37 38 38 38 39 38 37 36 35 34 33 34 34 33 33 34 34 33 33 33 33 33 33 33 33 33 32 31 31 31 31 31 30 29 29 29
39 39 39 39 37 36 37 37 36 37 37 37 37 37 37 36 35 35 34 34 34 35 35 35 35 34 34 35 35 35 35 34 34 33 33 33 33 33 33 32 31 31
40 40 39 39 37 37 37 37 36 36 36 35 37 38 38 38 38 37 36 35 35 36 36 36 36 36 36 36 37 37 36 36 35 35 35 35 35 35 35 34 33 34
39 39 39 38 37 37 37 37 37 36 35 36 36 36 37 38 38 38 37 37 37 37 37 38 38 38 38 38 38 38 38 38 37 37 37 37 37 37 36 35 35 36
40 39 39 39 39 38 38 38 38 37 37 37 37 36 36 37 37 37 37 38 39 39 39 40 40 40 39 39 40 40 40 40 39 39 38 38 38 38 38 37 38 38
40 40 39 40 40 39 39 39 39 38 38 39 39 38 37 37 37 37 38 39 40 41 41 41 41 41 41 41 41 40 40 40 40 40 40 40 40 40 39 39 39 40
39 40 40 40 40 41 41 41 40 40 40 40 40 40 39 38 37 38 39 40 41 42 42 42 42 41 42 42 41 41 40 40 40 40 41 41 41 41 40 40 40 40
39 40 40 40 40 40 41 41 41 41 41 41 40 40 40 40 40 40 41 41 42 43 43 42 41 41 42 42 41 41 41 41 41 41 41 41 41 42 41 41 41 41
39 39 39 39 39 39 41 41 41 41 41 40 40 40 41 41 41 41 41 41 43 43 43 42 41 42 43 43 42 42 42 42 41 41 41 41 41 41 41 41 41 41
39 38 38 38 39 40 40 41 41 40 40 40 40 40 41 41 41 41 41 42 43 43 43 42 42 43 44 45 44 44 43 42 41 41 40 40 39 39 39 40 40 41
38 37 37 38 39 40 40 40 41 40 39 40 40 40 41 41 41 41 42 43 43 43 43 43 44 44 45 46 46 46 45 43 41 40 39 39 38 37 38 38 39 40
37 37 37 38 38 39 39 39 39 39 39 39 40 41 40 40 41 42 43 43 43 43 43 43 45 46 46 47 47 48 48 45 42 40 38 38 38 38 38 38 37 38
38 38 38 39 39 39 39 38 37 38 39 40 40 41 40 40 41 42 44 44 43 43 43 44 45 46 47 48 49 49 49 48 45 41 39 38 38 38 38 38 38 38
38 38 38 39 39 39 38 38 38 39 40 40 39 39 39 40 41 42 43 44 44 44 44 44 45 46 47 48 49 49 48 48 47 45 41 40 39 38 38 39 39 39
38 38 38 38 39 39 38 39 40 40 40 40 39 38 39 40 41 41 42 43 43 43 43 43 44 45 45 45 47 47 47 47 46 46 43 42 40 39 39 39 39 39
38 37 37 38 38 38 38 38 39 40 40 40 39 38 39 39 40 40 40 41 41 41 41 42 43 41 41 42 43 44 44 44 45 45 44 43 42 40 40 40 40 39
39 38 37 38 38 37 37 38 39 40 40 40 39 38 38 39 39 40 39 39 39 39 40 41 41 38 37 38 39 40 41 42 44 44 44 43 43 42 41 41 41 41
40 40 39 38 38 38 38 38 39 39 40 40 39 39 39 39 39 39 39 39 39 39 40 40 38 37 35 35 36 36 37 40 42 43 43 43 42 42 42 42 42 42
41 41 41 40 39 39 39 39 39 39 40 40 40 40 39 38 38 38 38 39 39 40 40 39 38 36 35 34 34 33 35 38 40 42 41 40 41 41 41 42 42 42
40 41 42 41 40 40 39 39 39 38 38 38 38 38 37 36 36 37 37 37 38 38 38 38 37 35 34 33 33 33 34 35 38 41 40 39 40 39 39 39 40 40
Wind_Direction
206 206 207 208 208 209 207 206 206 207 209 211 214 217 218 218 218 219 221 222 222 223 225 229 232 234 233 232 230 230 232 232 232 232 228 228 231 233 230 225 223 225
206 206 207 208 209 210 209 208 207 207 209 212 215 218 219 220 220 221 223 223 223 225 226 228 231 233 234 233 231 231 232 233 234 233 231 231 234 234 231 227 225 225
206 207 207 208 210 210 210 209 208 208 209 212 215 217 219 221 222 222 224 224 225 226 226 228 230 232 233 233 231 231 232 234 235 234 232 233 234 234 233 230 227 226
207 208 209 210 211 211 212 210 210 210 211 213 216 218 219 220 222 223 223 224 225 226 227 228 229 231 232 232 231 232 233 234 235 233 232 233 234 234 234 232 229 226
208 209 210 212 212 212 212 212 213 213 213 215 216 218 219 220 222 222 222 223 224 226 227 227 229 230 232 232 231 231 232 234 235 233 232 232 232 233 233 233 230 226
208 209 211 212 213 213 212 214 215 215 215 216 216 217 219 220 221 222 221 221 223 225 226 227 228 229 231 231 231 231 233 234 234 233 232 232 231 232 232 232 232 228
207 209 211 213 214 214 214 215 216 216 217 217 216 216 216 217 219 220 221 221 222 224 225 227 228 228 229 230 230 231 232 233 233 232 232 232 231 231 231 232 232 231
207 208 210 212 213 215 216 217 216 217 217 216 216 217 216 216 218 219 221 222 222 224 226 227 229 229 229 228 228 230 230 231 231 231 231 231 230 230 231 231 231 232
206 208 210 211 213 215 217 218 218 218 216 215 216 217 216 217 218 220 221 222 223 224 226 227 229 230 229 228 227 228 229 230 230 230 230 229 229 230 230 230 229 232
206 207 209 210 212 214 217 218 219 219 218 217 216 216 216 217 219 220 220 221 223 224 226 228 229 229 229 228 228 228 229 230 230 230 230 230 230 231 231 230 229 231
206 206 208 209 211 213 216 218 219 219 219 219 218 217 217 218 218 219 220 221 223 225 226 228 229 229 228 228 228 228 229 230 231 231 231 231 232 232 232 231 230 231
206 206 207 209 211 213 215 217 218 219 219 220 220 219 219 219 218 219 220 221 224 225 226 228 229 228 228 229 229 228 228 229 230 231 232 233 233 233 233 232 231 233
207 207 208 209 211 213 215 216 217 218 219 220 221 220 220 220 220 220 221 223 225 226 227 228 228 228 229 229 229 229 228 228 229 230 232 233 234 235 234 234 234 234
209 209 209 210 212 213 215 217 217 218 219 220 221 220 221 221 221 222 223 224 225 227 228 228 228 228 229 228 229 229 229 229 230 230 231 232 234 235 235 235 235 236
210 210 210 211 212 214 216 217 218 218 219 219 220 220 221 222 222 222 223 224 225 227 228 228 228 228 229 228 228 228 229 230 231 230 231 232 233 235 236 236 236 237
209 210 210 211 212 214 216 217 218 219 219 220 221 221 221 222 222 223 223 224 226 226 227 228 228 229 230 230 230 229 229 230 231 232 232 233 234 235 236 237 237 238
208 209 211 211 213 214 216 217 218 219 219 220 221 222 222 222 222 222 223 225 226 227 227 227 228 229 230 231 232 231 231 231 232 233 234 234 235 235 236 238 238 239
207 209 211 212 213 214 216 217 218 218 219 221 221 222 222 222 222 222 223 225 226 227 227 228 229 230 231 232 233 233 233 232 233 234 235 235 236 237 238 239 239 240
208 209 210 212 213 214 215 216 217 218 219 220 222 222 222 222 223 223 224 225 225 227 228 229 230 232 232 232 233 234 234 233 233 234 236 236 237 238 239 239 240 241
207 208 209 211 213 213 213 214 215 217 219 220 222 222 222 223 224 224 225 226 226 227 229 230 232 233 233 233 234 235 235 234 234 235 237 238 239 239 240 241 241 242
206 207 209 210 211 212 211 212 214 216 218 219 220 222 223 224 225 226 227 227 228 228 230 233 234 234 235 235 235 236 236 235 235 235 237 239 241 242 242 243 243 243
206 206 207 209 210 210 210 211 213 214 216 217 219 221 223 225 227 228 229 229 230 230 231 235 237 236 236 237 238 238 237 236 236 236 238 240 241 242 243 244 245 245
205 206 207 208 208 208 209 210 212 214 216 216 217 219 221 224 226 228 230 231 232 231 232 235 238 238 238 239 239 239 238 237 236 236 238 240 242 243 244 245 245 245
205 206 207 207 207 207 209 211 212 214 215 215 216 218 220 222 225 227 230 231 232 233 234 236 238 238 238 239 239 239 238 237 236 236 238 241 243 244 245 245 246 247
205 205 206 207 207 208 209 211 212 213 215 215 216 218 220 222 224 226 229 230 232 234 235 236 238 238 238 238 238 237 237 237 236 235 237 239 242 244 246 247 247 248
205 205 206 207 208 209 210 211 212 213 214 215 216 218 220 222 224 226 228 230 232 233 235 236 237 238 237 237 237 237 236 236 234 233 234 238 241 243 245 247 247 249